Location: Kott?ru
(16.6209°N, 80.6208°E)
Time: 16:39:36
(UTC+00:00)

deb Chang Zheng 4 - Pass Details

Date: 18 September 2020
Orbit: 602 x 626 km, 98.6° (Epoch: 20 October)

Event Time Altitude Azimuth Distance (km) Brightness Sun altitude
Rises 22:29:55 0° 21° (NNE) 2,863 7.4 -28.5°
Reaches altitude 10° 22:32:09 10° 27° (NNE) 1,955 6.5 -28.0°
Maximum altitude 22:36:15 47° 101° (E) 799 4.4 -27.0°
Enters shadow 22:37:22 37° 145° (SE) 936 4.6 -26.7°
